| time (UTC) | temp F | wind direction | speed MPH | gust MPH | rain 1hr in | rain 24hr in | rain mn in | humidity % | barometer mb |
| 20260831022043 | 71 | 270 | 0.0 | 4.0 | 0.00 | 0.00 | 0.00 | 81 | 1016.9 |
| 20260831021550 | 71 | 270 | 0.0 | 4.0 | 0.00 | 0.00 | 0.00 | 81 | 1017.0 |
| 20260831021044 | 71 | 225 | 2.0 | 5.0 | 0.00 | 0.00 | 0.00 | 80 | 1017.0 |
| 20260831020544 | 71 | 256 | 1.0 | 6.0 | 0.00 | 0.00 | 0.00 | 80 | 1017.0 |
| 20260831020042 | 71 | 237 | 2.0 | 5.0 | 0.00 | 0.00 | 0.00 | 80 | 1017.0 |
| 20260831015546 | 71 | 231 | 2.0 | 4.0 | 0.00 | 0.00 | 0.00 | 80 | 1016.9 |
| 20260831015041 | 71 | 230 | 1.0 | 4.0 | 0.00 | 0.00 | 0.00 | 80 | 1016.8 |
| 20260831014540 | 71 | 229 | 1.0 | 4.0 | 0.00 | 0.00 | 0.00 | 80 | 1016.9 |
| 20260831014040 | 71 | 237 | 1.0 | 3.0 | 0.00 | 0.00 | 0.00 | 80 | 1016.9 |
| 20260831013539 | 71 | 236 | 1.0 | 3.0 | 0.00 | 0.00 | 0.00 | 80 | 1016.9 |
| 20260831013040 | 71 | 233 | 1.0 | 3.0 | 0.00 | 0.00 | 0.00 | 80 | 1016.7 |
| 20260831012539 | 71 | 232 | 1.0 | 4.0 | 0.00 | 0.00 | 0.00 | 80 | 1016.6 |
| 20260831012042 | 71 | 232 | 0.0 | 4.0 | 0.00 | 0.00 | 0.00 | 80 | 1016.5 |
| 20260831011550 | 71 | 220 | 0.0 | 4.0 | 0.00 | 0.00 | 0.00 | 79 | 1016.6 |
| 20260831011039 | 71 | 220 | 1.0 | 6.0 | 0.00 | 0.00 | 0.00 | 79 | 1016.7 |
| 20260831010538 | 71 | 216 | 1.0 | 4.0 | 0.00 | 0.00 | 0.00 | 79 | 1016.5 |
| 20260831010049 | 71 | 216 | 1.0 | 3.0 | 0.00 | 0.00 | 0.00 | 78 | 1016.4 |
| 20260831005538 | 72 | 217 | 1.0 | 5.0 | 0.00 | 0.00 | 0.00 | 77 | 1016.5 |
| 20260831005040 | 72 | 216 | 1.0 | 5.0 | 0.00 | 0.00 | 0.00 | 76 | 1016.5 |
| 20260831004538 | 73 | 230 | 1.0 | 3.0 | 0.00 | 0.00 | 0.00 | 74 | 1016.4 |
| 20260831004038 | 73 | 230 | 0.0 | 5.0 | 0.00 | 0.00 | 0.00 | 74 | 1016.3 |
| 20260831003538 | 73 | 230 | 2.0 | 5.0 | 0.00 | 0.00 | 0.00 | 73 | 1016.2 |
| 20260831003038 | 73 | 226 | 1.0 | 4.0 | 0.00 | 0.00 | 0.00 | 72 | 1016.2 |
| 20260831002537 | 73 | 218 | 1.0 | 4.0 | 0.00 | 0.00 | 0.00 | 71 | 1016.2 |
| 20260831002037 | 73 | 216 | 1.0 | 4.0 | 0.00 | 0.00 | 0.00 | 71 | 1016.1 |
| 20260831001538 | 73 | 216 | 2.0 | 7.0 | 0.00 | 0.00 | 0.00 | 70 | 1015.9 |
| 20260831001040 | 74 | 245 | 1.0 | 7.0 | 0.00 | 0.00 | 0.00 | 70 | 1015.6 |
| 20260831000537 | 74 | 213 | 1.0 | 4.0 | 0.00 | 0.00 | 0.00 | 70 | 1015.7 |
| 20260831000050 | 74 | 212 | 2.0 | 7.0 | 0.00 | 0.00 | 0.00 | 70 | 1015.8 |
| 20260830235536 | 74 | 212 | 1.0 | 7.0 | 0.00 | 0.00 | 0.00 | 70 | 1015.8 |
| 20260830235036 | 74 | 228 | 2.0 | 6.0 | 0.00 | 0.00 | 0.00 | 70 | 1015.8 |
| 20260830234538 | 74 | 234 | 3.0 | 7.0 | 0.00 | 0.00 | 0.00 | 69 | 1015.6 |
| 20260830234035 | 74 | 219 | 2.0 | 8.0 | 0.00 | 0.00 | 0.00 | 69 | 1015.7 |
| 20260830233535 | 74 | 231 | 1.0 | 8.0 | 0.00 | 0.00 | 0.00 | 69 | 1015.6 |
| 20260830233036 | 74 | 228 | 3.0 | 8.0 | 0.00 | 0.00 | 0.00 | 69 | 1015.9 |
| 20260830232536 | 74 | 200 | 2.0 | 8.0 | 0.00 | 0.00 | 0.00 | 69 | 1015.9 |
| 20260830232034 | 74 | 226 | 1.0 | 8.0 | 0.00 | 0.00 | 0.00 | 68 | 1016.0 |
| 20260830231534 | 75 | 231 | 3.0 | 6.0 | 0.00 | 0.00 | 0.00 | 68 | 1016.0 |
| 20260830231038 | 75 | 222 | 2.0 | 11.0 | 0.00 | 0.00 | 0.00 | 68 | 1015.9 |
| 20260830230533 | 75 | 222 | 1.0 | 11.0 | 0.00 | 0.00 | 0.00 | 68 | 1016.0 |
| 20260830230041 | 75 | 204 | 3.0 | 9.0 | 0.00 | 0.00 | 0.00 | 68 | 1015.9 |
| 20260830225532 | 75 | 210 | 2.0 | 9.0 | 0.00 | 0.00 | 0.00 | 68 | 1016.0 |
| 20260830225032 | 75 | 222 | 3.0 | 9.0 | 0.00 | 0.00 | 0.00 | 68 | 1016.0 |
| 20260830224531 | 75 | 202 | 2.0 | 5.0 | 0.00 | 0.00 | 0.00 | 67 | 1016.2 |
| 20260830224031 | 75 | 203 | 2.0 | 5.0 | 0.00 | 0.00 | 0.00 | 67 | 1016.2 |
| 20260830223531 | 75 | 227 | 2.0 | 6.0 | 0.00 | 0.00 | 0.00 | 67 | 1016.2 |
| 20260830223031 | 76 | 243 | 2.0 | 7.0 | 0.00 | 0.00 | 0.00 | 67 | 1016.2 |
| 20260830222529 | 76 | 221 | 1.0 | 5.0 | 0.00 | 0.00 | 0.00 | 67 | 1016.3 |
| 20260830222033 | 76 | 216 | 1.0 | 6.0 | 0.00 | 0.00 | 0.00 | 66 | 1016.3 |
| 20260830221530 | 76 | 208 | 2.0 | 10.0 | 0.00 | 0.00 | 0.00 | 66 | 1016.4 |
| 20260830221030 | 76 | 218 | 1.0 | 10.0 | 0.00 | 0.00 | 0.00 | 66 | 1016.3 |
| 20260830220529 | 77 | 193 | 3.0 | 10.0 | 0.00 | 0.00 | 0.00 | 65 | 1016.3 |
| 20260830220032 | 77 | 247 | 3.0 | 10.0 | 0.00 | 0.00 | 0.00 | 64 | 1016.3 |
| 20260830215529 | 77 | 225 | 4.0 | 15.0 | 0.00 | 0.00 | 0.00 | 63 | 1016.2 |
| 20260830215029 | 78 | 207 | 5.0 | 15.0 | 0.00 | 0.00 | 0.00 | 62 | 1016.2 |
| 20260830214530 | 79 | 203 | 4.0 | 8.0 | 0.00 | 0.00 | 0.00 | 62 | 1016.2 |
| 20260830214028 | 79 | 210 | 2.0 | 5.0 | 0.00 | 0.00 | 0.00 | 63 | 1016.2 |
| 20260830213526 | 78 | 215 | 2.0 | 10.0 | 0.00 | 0.00 | 0.00 | 63 | 1016.2 |
| 20260830213035 | 78 | 218 | 3.0 | 12.0 | 0.00 | 0.00 | 0.00 | 63 | 1016.3 |
| 20260830212526 | 77 | 232 | 2.0 | 12.0 | 0.00 | 0.00 | 0.00 | 63 | 1016.2 |
| 20260830212026 | 77 | 206 | 2.0 | 9.0 | 0.00 | 0.00 | 0.00 | 63 | 1016.4 |
| 20260830211526 | 77 | 244 | 3.0 | 9.0 | 0.00 | 0.00 | 0.00 | 63 | 1016.3 |
| 20260830211026 | 77 | 249 | 3.0 | 6.0 | 0.00 | 0.00 | 0.00 | 63 | 1016.3 |
| 20260830210526 | 77 | 228 | 2.0 | 11.0 | 0.00 | 0.00 | 0.00 | 63 | 1016.3 |
| 20260830210028 | 77 | 197 | 4.0 | 9.0 | 0.00 | 0.00 | 0.00 | 62 | 1016.4 |
| 20260830205524 | 78 | 222 | 1.0 | 7.0 | 0.00 | 0.00 | 0.00 | 64 | 1016.4 |
| 20260830205024 | 78 | 211 | 1.0 | 7.0 | 0.00 | 0.00 | 0.00 | 62 | 1016.4 |
| 20260830204524 | 78 | 239 | 2.0 | 8.0 | 0.00 | 0.00 | 0.00 | 63 | 1016.4 |
| 20260830204023 | 78 | 208 | 2.0 | 8.0 | 0.00 | 0.00 | 0.00 | 62 | 1016.5 |
| 20260830203522 | 78 | 222 | 3.0 | 8.0 | 0.00 | 0.00 | 0.00 | 62 | 1016.5 |
| 20260830203022 | 78 | 228 | 1.0 | 7.0 | 0.00 | 0.00 | 0.00 | 62 | 1016.6 |
| 20260830202525 | 78 | 212 | 2.0 | 8.0 | 0.00 | 0.00 | 0.00 | 62 | 1016.6 |
| 20260830202021 | 78 | 191 | 2.0 | 8.0 | 0.00 | 0.00 | 0.00 | 63 | 1016.6 |
| 20260830201521 | 77 | 206 | 2.0 | 6.0 | 0.00 | 0.00 | 0.00 | 63 | 1016.7 |
| 20260830201020 | 78 | 207 | 2.0 | 8.0 | 0.00 | 0.00 | 0.00 | 62 | 1016.7 |
| 20260830200520 | 78 | 220 | 3.0 | 8.0 | 0.00 | 0.00 | 0.00 | 62 | 1016.7 |
| 20260830200020 | 78 | 231 | 3.0 | 7.0 | 0.00 | 0.00 | 0.00 | 61 | 1016.8 |
| 20260830195519 | 78 | 218 | 3.0 | 7.0 | 0.00 | 0.00 | 0.00 | 62 | 1016.8 |
| 20260830195018 | 78 | 291 | 2.0 | 7.0 | 0.00 | 0.00 | 0.00 | 63 | 1016.9 |
| 20260830194520 | 78 | 229 | 2.0 | 6.0 | 0.00 | 0.00 | 0.00 | 62 | 1017.0 |
| 20260830194016 | 78 | 239 | 1.0 | 3.0 | 0.00 | 0.00 | 0.00 | 62 | 1017.1 |
| 20260830193516 | 78 | 239 | 1.0 | 4.0 | 0.00 | 0.00 | 0.00 | 62 | 1017.1 |
| 20260830193016 | 78 | 239 | 1.0 | 5.0 | 0.00 | 0.00 | 0.00 | 60 | 1017.1 |
| 20260830192514 | 78 | 239 | 1.0 | 5.0 | 0.00 | 0.00 | 0.00 | 60 | 1017.2 |
| 20260830192014 | 78 | 228 | 1.0 | 5.0 | 0.00 | 0.00 | 0.00 | 60 | 1017.3 |
| 20260830191514 | 79 | 207 | 2.0 | 4.0 | 0.00 | 0.00 | 0.00 | 58 | 1017.2 |
| 20260830191014 | 79 | 205 | 2.0 | 4.0 | 0.00 | 0.00 | 0.00 | 57 | 1017.3 |
| 20260830190514 | 80 | 268 | 1.0 | 3.0 | 0.00 | 0.00 | 0.00 | 57 | 1017.3 |
| 20260830190013 | 80 | 268 | 1.0 | 7.0 | 0.00 | 0.00 | 0.00 | 56 | 1017.3 |
| 20260830185515 | 80 | 267 | 1.0 | 7.0 | 0.00 | 0.00 | 0.00 | 56 | 1017.4 |
| 20260830185012 | 79 | 214 | 2.0 | 9.0 | 0.00 | 0.00 | 0.00 | 55 | 1017.6 |
| 20260830184515 | 80 | 202 | 3.0 | 9.0 | 0.00 | 0.00 | 0.00 | 54 | 1017.6 |
| 20260830184010 | 80 | 238 | 3.0 | 7.0 | 0.00 | 0.00 | 0.00 | 55 | 1017.6 |
| 20260830183512 | 80 | 233 | 2.0 | 12.0 | 0.00 | 0.00 | 0.00 | 55 | 1017.8 |
| 20260830183009 | 80 | 269 | 5.0 | 12.0 | 0.00 | 0.00 | 0.00 | 55 | 1017.8 |
| 20260830182509 | 80 | 216 | 4.0 | 9.0 | 0.00 | 0.00 | 0.00 | 55 | 1017.9 |
| 20260830182010 | 81 | 214 | 3.0 | 9.0 | 0.00 | 0.00 | 0.00 | 54 | 1017.9 |
| 20260830181508 | 82 | 246 | 3.0 | 9.0 | 0.00 | 0.00 | 0.00 | 52 | 1018.1 |
| 20260830181008 | 82 | 280 | 2.0 | 10.0 | 0.00 | 0.00 | 0.00 | 53 | 1018.2 |
| 20260830180505 | 81 | 247 | 3.0 | 12.0 | 0.00 | 0.00 | 0.00 | 53 | 1018.3 |
| 20260830180006 | 80 | 229 | 5.0 | 12.0 | 0.00 | 0.00 | 0.00 | 54 | 1018.4 |
| 20260830175505 | 80 | 264 | 5.0 | 11.0 | 0.00 | 0.00 | 0.00 | 55 | 1018.5 |
| 20260830175006 | 82 | 264 | 4.0 | 11.0 | 0.00 | 0.00 | 0.00 | 52 | 1018.5 |
| 20260830174505 | 81 | 254 | 2.0 | 11.0 | 0.00 | 0.00 | 0.00 | 54 | 1018.5 |
| 20260830174004 | 82 | 255 | 5.0 | 13.0 | 0.00 | 0.00 | 0.00 | 53 | 1018.4 |
| 20260830173503 | 80 | 246 | 5.0 | 13.0 | 0.00 | 0.00 | 0.00 | 55 | 1018.5 |
| 20260830173003 | 80 | 239 | 2.0 | 12.0 | 0.00 | 0.00 | 0.00 | 55 | 1018.5 |
| 20260830172504 | 80 | 218 | 3.0 | 11.0 | 0.00 | 0.00 | 0.00 | 55 | 1018.5 |
| 20260830172005 | 82 | 195 | 4.0 | 14.0 | 0.00 | 0.00 | 0.00 | 55 | 1018.5 |
| 20260830171502 | 79 | 219 | 6.0 | 14.0 | 0.00 | 0.00 | 0.00 | 56 | 1018.5 |
| 20260830171001 | 80 | 238 | 4.0 | 11.0 | 0.00 | 0.00 | 0.00 | 55 | 1018.5 |
| 20260830170601 | 80 | 230 | 4.0 | 12.0 | 0.00 | 0.00 | 0.00 | 56 | 1018.7 |
| 20260830170101 | 80 | 247 | 5.0 | 12.0 | 0.00 | 0.00 | 0.00 | 56 | 1018.7 |
| 20260830165600 | 79 | 226 | 5.0 | 13.0 | 0.00 | 0.00 | 0.00 | 57 | 1018.7 |
| 20260830165100 | 79 | 271 | 6.0 | 13.0 | 0.00 | 0.00 | 0.00 | 57 | 1018.7 |
| 20260830164600 | 78 | 235 | 5.0 | 11.0 | 0.00 | 0.00 | 0.00 | 58 | 1018.9 |
| 20260830164100 | 80 | 201 | 5.0 | 11.0 | 0.00 | 0.00 | 0.00 | 56 | 1018.8 |
| 20260830163600 | 80 | 198 | 5.0 | 10.0 | 0.00 | 0.00 | 0.00 | 57 | 1018.9 |
| 20260830163059 | 79 | 222 | 5.0 | 10.0 | 0.00 | 0.00 | 0.00 | 57 | 1018.8 |
| 20260830162558 | 79 | 216 | 5.0 | 12.0 | 0.00 | 0.00 | 0.00 | 57 | 1018.7 |
| 20260830162058 | 79 | 239 | 6.0 | 12.0 | 0.00 | 0.00 | 0.00 | 56 | 1018.8 |
| 20260830161557 | 80 | 309 | 3.0 | 13.0 | 0.00 | 0.00 | 0.00 | 57 | 1018.7 |
| 20260830161057 | 80 | 264 | 5.0 | 13.0 | 0.00 | 0.00 | 0.00 | 55 | 1018.7 |
| 20260830160557 | 81 | 257 | 4.0 | 10.0 | 0.00 | 0.00 | 0.00 | 56 | 1018.8 |
| 20260830160057 | 81 | 331 | 5.0 | 14.0 | 0.00 | 0.00 | 0.00 | 56 | 1018.7 |
| 20260830155557 | 81 | 287 | 6.0 | 14.0 | 0.00 | 0.00 | 0.00 | 53 | 1018.7 |
| 20260830155056 | 82 | 285 | 5.0 | 13.0 | 0.00 | 0.00 | 0.00 | 52 | 1018.7 |
| 20260830154555 | 82 | 280 | 5.0 | 13.0 | 0.00 | 0.00 | 0.00 | 53 | 1018.7 |
| 20260830154053 | 82 | 228 | 4.0 | 13.0 | 0.00 | 0.00 | 0.00 | 54 | 1018.7 |
| 20260830153553 | 81 | 275 | 7.0 | 13.0 | 0.00 | 0.00 | 0.00 | 54 | 1018.7 |
| 20260830153054 | 81 | 221 | 5.0 | 16.0 | 0.00 | 0.00 | 0.00 | 54 | 1018.9 |
| 20260830152551 | 81 | 260 | 6.0 | 16.0 | 0.00 | 0.00 | 0.00 | 57 | 1019.0 |
| 20260830152049 | 80 | 254 | 4.0 | 11.0 | 0.00 | 0.00 | 0.00 | 58 | 1019.1 |
| 20260830151554 | 80 | 258 | 5.0 | 11.0 | 0.00 | 0.00 | 0.00 | 60 | 1019.2 |
| 20260830151048 | 79 | 285 | 1.0 | 8.0 | 0.00 | 0.00 | 0.00 | 62 | 1019.2 |
| 20260830150546 | 78 | 207 | 4.0 | 8.0 | 0.00 | 0.00 | 0.00 | 61 | 1019.2 |
| 20260830150045 | 78 | 221 | 3.0 | 8.0 | 0.00 | 0.00 | 0.00 | 62 | 1019.2 |
| 20260830145547 | 78 | 219 | 3.0 | 9.0 | 0.00 | 0.00 | 0.00 | 61 | 1019.2 |
| 20260830145043 | 77 | 237 | 4.0 | 11.0 | 0.00 | 0.00 | 0.00 | 61 | 1019.3 |
| 20260830144547 | 77 | 220 | 5.0 | 11.0 | 0.00 | 0.00 | 0.00 | 61 | 1019.3 |
| 20260830144041 | 77 | 241 | 4.0 | 10.0 | 0.00 | 0.00 | 0.00 | 62 | 1019.2 |
| 20260830143541 | 77 | 239 | 3.0 | 9.0 | 0.00 | 0.00 | 0.00 | 63 | 1019.4 |
| 20260830143043 | 76 | 216 | 6.0 | 11.0 | 0.00 | 0.00 | 0.00 | 61 | 1019.3 |
| 20260830142539 | 76 | 233 | 4.0 | 12.0 | 0.00 | 0.00 | 0.00 | 61 | 1019.5 |
| 20260830142042 | 76 | 227 | 2.0 | 8.0 | 0.00 | 0.00 | 0.00 | 63 | 1019.7 |
| 20260830141541 | 76 | 247 | 2.0 | 8.0 | 0.00 | 0.00 | 0.00 | 63 | 1019.7 |
| 20260830141036 | 76 | 218 | 4.0 | 9.0 | 0.00 | 0.00 | 0.00 | 63 | 1019.6 |
| 20260830140534 | 75 | 241 | 4.0 | 9.0 | 0.00 | 0.00 | 0.00 | 65 | 1019.7 |
| 20260830140033 | 74 | 278 | 4.0 | 8.0 | 0.00 | 0.00 | 0.00 | 65 | 1019.7 |
| 20260830135535 | 73 | 232 | 2.0 | 9.0 | 0.00 | 0.00 | 0.00 | 67 | 1019.7 |
| 20260830135032 | 73 | 274 | 4.0 | 10.0 | 0.00 | 0.00 | 0.00 | 67 | 1019.8 |
| 20260830134538 | 73 | 209 | 4.0 | 10.0 | 0.00 | 0.00 | 0.00 | 66 | 1019.7 |
| 20260830134030 | 73 | 216 | 4.0 | 10.0 | 0.00 | 0.00 | 0.00 | 65 | 1019.8 |
| 20260830133529 | 73 | 245 | 2.0 | 7.0 | 0.00 | 0.00 | 0.00 | 68 | 1019.8 |
| 20260830133027 | 72 | 277 | 2.0 | 7.0 | 0.00 | 0.00 | 0.00 | 70 | 1019.9 |
| 20260830132527 | 72 | 214 | 3.0 | 8.0 | 0.00 | 0.00 | 0.00 | 68 | 1019.8 |
| 20260830132026 | 71 | 237 | 2.0 | 9.0 | 0.00 | 0.00 | 0.00 | 71 | 1019.7 |
| 20260830131524 | 70 | 233 | 2.0 | 9.0 | 0.00 | 0.00 | 0.00 | 74 | 1019.8 |
| 20260830131024 | 69 | 226 | 3.0 | 9.0 | 0.00 | 0.00 | 0.00 | 75 | 1019.9 |
| 20260830130523 | 68 | 221 | 3.0 | 8.0 | 0.00 | 0.00 | 0.00 | 76 | 1020.0 |
| 20260830130020 | 68 | 211 | 3.0 | 7.0 | 0.00 | 0.00 | 0.00 | 76 | 1020.0 |
| 20260830125521 | 67 | 235 | 3.0 | 8.0 | 0.00 | 0.00 | 0.00 | 76 | 1020.0 |
| 20260830125018 | 67 | 221 | 4.0 | 9.0 | 0.00 | 0.00 | 0.00 | 76 | 1020.1 |
| 20260830124517 | 67 | 201 | 3.0 | 9.0 | 0.00 | 0.00 | 0.00 | 76 | 1020.2 |
| 20260830124016 | 67 | 228 | 4.0 | 8.0 | 0.00 | 0.00 | 0.00 | 77 | 1020.3 |
| 20260830123518 | 66 | 206 | 3.0 | 8.0 | 0.00 | 0.00 | 0.00 | 77 | 1020.3 |
| 20260830123024 | 66 | 212 | 2.0 | 6.0 | 0.00 | 0.00 | 0.00 | 77 | 1020.2 |
| 20260830122514 | 65 | 211 | 3.0 | 6.0 | 0.00 | 0.00 | 0.00 | 78 | 1020.2 |
| 20260830122011 | 65 | 196 | 3.0 | 7.0 | 0.00 | 0.00 | 0.00 | 78 | 1020.2 |
| 20260830121511 | 65 | 214 | 2.0 | 7.0 | 0.00 | 0.00 | 0.00 | 79 | 1020.2 |
| 20260830121009 | 64 | 220 | 3.0 | 9.0 | 0.00 | 0.00 | 0.00 | 79 | 1020.3 |
| 20260830120508 | 64 | 224 | 3.0 | 9.0 | 0.00 | 0.00 | 0.00 | 79 | 1020.2 |
| 20260830120008 | 64 | 216 | 2.0 | 7.0 | 0.00 | 0.00 | 0.00 | 80 | 1020.3 |
| 20260830115507 | 63 | 222 | 3.0 | 8.0 | 0.00 | 0.00 | 0.00 | 80 | 1020.2 |
| 20260830115007 | 63 | 221 | 3.0 | 8.0 | 0.00 | 0.00 | 0.00 | 81 | 1020.4 |
| 20260830114504 | 63 | 201 | 3.0 | 6.0 | 0.00 | 0.00 | 0.00 | 81 | 1020.5 |
| 20260830114004 | 62 | 212 | 2.0 | 5.0 | 0.00 | 0.00 | 0.00 | 82 | 1020.6 |
| 20260830113501 | 62 | 210 | 1.0 | 5.0 | 0.00 | 0.00 | 0.00 | 82 | 1020.5 |
| 20260830113000 | 62 | 206 | 2.0 | 5.0 | 0.00 | 0.00 | 0.00 | 83 | 1020.5 |
| 20260830112559 | 61 | 227 | 2.0 | 6.0 | 0.00 | 0.00 | 0.00 | 83 | 1020.6 |
| 20260830112058 | 61 | 214 | 3.0 | 6.0 | 0.00 | 0.00 | 0.00 | 83 | 1020.5 |
| 20260830111557 | 61 | 218 | 2.0 | 5.0 | 0.00 | 0.00 | 0.00 | 83 | 1020.5 |
| 20260830111056 | 61 | 216 | 1.0 | 5.0 | 0.00 | 0.00 | 0.00 | 83 | 1020.4 |
| 20260830110556 | 61 | 214 | 2.0 | 4.0 | 0.00 | 0.00 | 0.00 | 83 | 1020.4 |
| 20260830110101 | 60 | 214 | 1.0 | 7.0 | 0.00 | 0.00 | 0.00 | 83 | 1020.4 |
| 20260830105556 | 60 | 214 | 2.0 | 7.0 | 0.00 | 0.00 | 0.00 | 83 | 1020.4 |
| 20260830105055 | 60 | 218 | 2.0 | 6.0 | 0.00 | 0.00 | 0.00 | 83 | 1020.4 |
| 20260830104554 | 60 | 224 | 1.0 | 5.0 | 0.00 | 0.00 | 0.00 | 83 | 1020.3 |
| 20260830104053 | 60 | 224 | 1.0 | 4.0 | 0.00 | 0.00 | 0.00 | 83 | 1020.3 |
| 20260830103552 | 60 | 225 | 1.0 | 4.0 | 0.00 | 0.00 | 0.00 | 83 | 1020.3 |
| 20260830103052 | 60 | 225 | 2.0 | 4.0 | 0.00 | 0.00 | 0.00 | 83 | 1020.3 |
| 20260830102551 | 60 | 225 | 1.0 | 4.0 | 0.00 | 0.00 | 0.00 | 83 | 1020.3 |
| 20260830102050 | 60 | 225 | 2.0 | 5.0 | 0.00 | 0.00 | 0.00 | 83 | 1020.4 |
| 20260830101550 | 60 | 225 | 2.0 | 4.0 | 0.00 | 0.00 | 0.00 | 83 | 1020.4 |
| 20260830101053 | 60 | 228 | 1.0 | 7.0 | 0.00 | 0.00 | 0.00 | 82 | 1020.4 |
| 20260830100551 | 60 | 214 | 2.0 | 7.0 | 0.00 | 0.00 | 0.00 | 83 | 1020.4 |
| 20260830100101 | 60 | 170 | 3.0 | 6.0 | 0.00 | 0.00 | 0.00 | 82 | 1020.3 |
| 20260830095552 | 60 | 158 | 1.0 | 5.0 | 0.00 | 0.00 | 0.00 | 82 | 1020.4 |
| 20260830095051 | 60 | 221 | 1.0 | 4.0 | 0.00 | 0.00 | 0.00 | 83 | 1020.3 |
| 20260830094548 | 60 | 220 | 2.0 | 5.0 | 0.00 | 0.00 | 0.00 | 83 | 1020.2 |
| 20260830094046 | 60 | 221 | 2.0 | 5.0 | 0.00 | 0.00 | 0.00 | 83 | 1020.3 |
| 20260830093547 | 60 | 232 | 1.0 | 5.0 | 0.00 | 0.00 | 0.00 | 84 | 1020.3 |
| 20260830093045 | 60 | 222 | 1.0 | 5.0 | 0.00 | 0.00 | 0.00 | 84 | 1020.3 |
| 20260830092549 | 60 | 220 | 2.0 | 5.0 | 0.00 | 0.00 | 0.00 | 84 | 1020.4 |
| 20260830092046 | 60 | 220 | 0.0 | 2.0 | 0.00 | 0.00 | 0.00 | 84 | 1020.5 |
| 20260830091544 | 60 | 220 | 1.0 | 2.0 | 0.00 | 0.00 | 0.00 | 84 | 1020.6 |
| 20260830091044 | 60 | 220 | 1.0 | 2.0 | 0.00 | 0.00 | 0.00 | 84 | 1020.7 |
| 20260830090543 | 60 | 220 | 0.0 | 3.0 | 0.00 | 0.00 | 0.00 | 84 | 1020.7 |
| 20260830090043 | 60 | 220 | 1.0 | 3.0 | 0.00 | 0.00 | 0.00 | 84 | 1020.8 |
| 20260830085542 | 60 | 220 | 0.0 | 4.0 | 0.00 | 0.00 | 0.00 | 84 | 1020.8 |
| 20260830085041 | 60 | 220 | 1.0 | 4.0 | 0.00 | 0.00 | 0.00 | 84 | 1020.8 |
| 20260830084613 | 60 | 220 | 1.0 | 5.0 | 0.00 | 0.00 | 0.00 | 84 | 1020.8 |
| 20260830084040 | 60 | 220 | 1.0 | 5.0 | 0.00 | 0.00 | 0.00 | 84 | 1020.8 |
| 20260830083540 | 60 | 220 | 2.0 | 5.0 | 0.00 | 0.00 | 0.00 | 84 | 1020.9 |
| 20260830083040 | 60 | 218 | 1.0 | 4.0 | 0.00 | 0.00 | 0.00 | 84 | 1021.0 |
| 20260830082538 | 59 | 217 | 2.0 | 6.0 | 0.00 | 0.00 | 0.00 | 84 | 1021.0 |
| 20260830082038 | 59 | 217 | 2.0 | 6.0 | 0.00 | 0.00 | 0.00 | 85 | 1020.9 |
| 20260830081545 | 59 | 215 | 2.0 | 5.0 | 0.00 | 0.00 | 0.00 | 85 | 1020.9 |
| 20260830081037 | 59 | 222 | 1.0 | 5.0 | 0.00 | 0.00 | 0.00 | 85 | 1020.9 |
| 20260830080536 | 59 | 222 | 2.0 | 5.0 | 0.00 | 0.00 | 0.00 | 85 | 1020.9 |
| 20260830080035 | 59 | 222 | 1.0 | 5.0 | 0.00 | 0.00 | 0.00 | 85 | 1020.9 |
| 20260830075535 | 59 | 216 | 2.0 | 5.0 | 0.00 | 0.00 | 0.00 | 85 | 1020.9 |
| 20260830075035 | 59 | 215 | 1.0 | 4.0 | 0.00 | 0.00 | 0.00 | 85 | 1020.9 |
| 20260830074542 | 59 | 215 | 2.0 | 4.0 | 0.00 | 0.00 | 0.00 | 86 | 1020.9 |
| 20260830074033 | 59 | 216 | 1.0 | 3.0 | 0.00 | 0.00 | 0.00 | 86 | 1020.9 |
| 20260830073534 | 59 | 215 | 1.0 | 3.0 | 0.00 | 0.00 | 0.00 | 86 | 1020.9 |
| 20260830073031 | 59 | 215 | 1.0 | 3.0 | 0.00 | 0.00 | 0.00 | 86 | 1020.9 |
| 20260830072532 | 59 | 215 | 1.0 | 5.0 | 0.00 | 0.00 | 0.00 | 86 | 1020.8 |
| 20260830072032 | 59 | 214 | 1.0 | 5.0 | 0.00 | 0.00 | 0.00 | 86 | 1020.8 |
| 20260830071532 | 58 | 214 | 1.0 | 3.0 | 0.00 | 0.00 | 0.00 | 86 | 1020.7 |
| 20260830071032 | 58 | 215 | 1.0 | 3.0 | 0.00 | 0.00 | 0.00 | 86 | 1020.7 |
| 20260830070531 | 58 | 215 | 1.0 | 3.0 | 0.00 | 0.00 | 0.00 | 86 | 1020.7 |
| 20260830070030 | 58 | 214 | 0.0 | 2.0 | 0.00 | 0.00 | 0.00 | 87 | 1020.6 |
| 20260830065530 | 58 | 214 | 0.0 | 4.0 | 0.00 | 0.00 | 0.00 | 87 | 1020.6 |
| 20260830065029 | 58 | 214 | 1.0 | 5.0 | 0.00 | 0.00 | 0.00 | 87 | 1020.6 |
| 20260830064528 | 58 | 224 | 1.0 | 5.0 | 0.00 | 0.00 | 0.00 | 88 | 1020.6 |
| 20260830064027 | 58 | 227 | 1.0 | 4.0 | 0.00 | 0.00 | 0.00 | 88 | 1020.8 |
| 20260830063527 | 58 | 227 | 1.0 | 4.0 | 0.00 | 0.00 | 0.00 | 88 | 1020.7 |
| 20260830063026 | 58 | 228 | 2.0 | 4.0 | 0.00 | 0.00 | 0.00 | 88 | 1020.8 |
| 20260830062526 | 58 | 228 | 0.0 | 1.0 | 0.00 | 0.00 | 0.00 | 87 | 1020.8 |
| 20260830062024 | 58 | 228 | 0.0 | 0.0 | 0.00 | 0.00 | 0.00 | 87 | 1020.8 |
| 20260830061531 | 58 | 228 | 0.0 | 2.0 | 0.00 | 0.00 | 0.00 | 87 | 1020.8 |
| 20260830061023 | 58 | 228 | 0.0 | 2.0 | 0.00 | 0.00 | 0.00 | 87 | 1020.9 |
| 20260830060522 | 58 | 228 | 0.0 | 2.0 | 0.00 | 0.00 | 0.00 | 87 | 1020.9 |
| 20260830060022 | 58 | 228 | 0.0 | 2.0 | 0.00 | 0.00 | 0.00 | 87 | 1021.0 |
| 20260830055521 | 58 | 228 | 0.0 | 2.0 | 0.00 | 0.00 | 0.00 | 88 | 1021.1 |
| 20260830055020 | 58 | 228 | 1.0 | 3.0 | 0.00 | 0.00 | 0.00 | 88 | 1021.1 |
| 20260830054519 | 58 | 228 | 1.0 | 4.0 | 0.00 | 0.00 | 0.00 | 88 | 1021.1 |
| 20260830054018 | 58 | 228 | 2.0 | 4.0 | 0.00 | 0.00 | 0.00 | 89 | 1021.1 |
| 20260830053516 | 57 | 228 | 2.0 | 4.0 | 0.00 | 0.00 | 0.00 | 89 | 1021.2 |
| 20260830053015 | 57 | 229 | 1.0 | 3.0 | 0.00 | 0.00 | 0.00 | 89 | 1021.1 |
| 20260830052515 | 57 | 228 | 1.0 | 3.0 | 0.00 | 0.00 | 0.00 | 89 | 1021.2 |
| 20260830052014 | 57 | 228 | 0.0 | 4.0 | 0.00 | 0.00 | 0.00 | 89 | 1021.2 |
| 20260830051514 | 57 | 228 | 0.0 | 4.0 | 0.00 | 0.00 | 0.00 | 89 | 1021.3 |
| 20260830051013 | 56 | 228 | 1.0 | 5.0 | 0.00 | 0.00 | 0.00 | 89 | 1021.2 |
| 20260830050513 | 56 | 228 | 0.0 | 5.0 | 0.00 | 0.00 | 0.00 | 89 | 1021.1 |
| 20260830050011 | 56 | 211 | 1.0 | 4.0 | 0.00 | 0.00 | 0.00 | 89 | 1021.1 |
| 20260830045511 | 55 | 210 | 0.0 | 0.0 | 0.00 | 0.00 | 0.00 | 89 | 1021.1 |
| 20260830045010 | 55 | 210 | 0.0 | 2.0 | 0.00 | 0.00 | 0.00 | 89 | 1021.1 |
| 20260830044509 | 55 | 211 | 0.0 | 2.0 | 0.00 | 0.00 | 0.00 | 89 | 1021.1 |
| 20260830044012 | 55 | 211 | 0.0 | 0.0 | 0.00 | 0.00 | 0.00 | 89 | 1021.1 |
| 20260830043508 | 55 | 210 | 0.0 | 1.0 | 0.00 | 0.00 | 0.00 | 89 | 1021.1 |
| 20260830043009 | 55 | 210 | 0.0 | 1.0 | 0.00 | 0.00 | 0.00 | 89 | 1021.1 |
| 20260830042507 | 55 | 210 | 0.0 | 0.0 | 0.00 | 0.00 | 0.00 | 89 | 1021.1 |
| 20260830042008 | 56 | 210 | 0.0 | 0.0 | 0.00 | 0.00 | 0.00 | 89 | 1021.1 |
| 20260830041506 | 56 | 210 | 0.0 | 0.0 | 0.00 | 0.00 | 0.00 | 89 | 1021.1 |
| 20260830041008 | 56 | 210 | 0.0 | 0.0 | 0.00 | 0.00 | 0.00 | 88 | 1021.1 |
| 20260830040505 | 56 | 211 | 0.0 | 0.0 | 0.00 | 0.00 | 0.00 | 88 | 1021.1 |
| 20260830040005 | 56 | 211 | 0.0 | 0.0 | 0.00 | 0.00 | 0.00 | 88 | 1021.2 |
| 20260830035504 | 56 | 212 | 0.0 | 0.0 | 0.00 | 0.00 | 0.00 | 88 | 1021.1 |
| 20260830035004 | 56 | 210 | 0.0 | 0.0 | 0.00 | 0.00 | 0.00 | 88 | 1021.1 |
| 20260830034503 | 56 | 211 | 0.0 | 0.0 | 0.00 | 0.00 | 0.00 | 88 | 1021.2 |
| 20260830034003 | 56 | 210 | 0.0 | 0.0 | 0.00 | 0.00 | 0.00 | 88 | 1021.3 |
| 20260830033502 | 56 | 210 | 0.0 | 0.0 | 0.00 | 0.00 | 0.00 | 88 | 1021.2 |
| 20260830033001 | 56 | 211 | 0.0 | 0.0 | 0.00 | 0.00 | 0.00 | 87 | 1021.3 |
| 20260830032503 | 57 | 210 | 0.0 | 0.0 | 0.00 | 0.00 | 0.00 | 88 | 1021.3 |
| 20260830032003 | 57 | 211 | 0.0 | 0.0 | 0.00 | 0.00 | 0.00 | 87 | 1021.3 |
| 20260830031603 | 57 | 210 | 0.0 | 0.0 | 0.00 | 0.00 | 0.00 | 87 | 1021.3 |
| 20260830031102 | 57 | 210 | 0.0 | 0.0 | 0.00 | 0.00 | 0.00 | 87 | 1021.3 |
| 20260830030600 | 57 | 211 | 0.0 | 0.0 | 0.00 | 0.00 | 0.00 | 87 | 1021.3 |
| 20260830030100 | 57 | 211 | 0.0 | 0.0 | 0.00 | 0.00 | 0.00 | 87 | 1021.3 |
| 20260830025559 | 57 | 211 | 0.0 | 0.0 | 0.00 | 0.00 | 0.00 | 86 | 1021.3 |
| 20260830025058 | 57 | 210 | 0.0 | 0.0 | 0.00 | 0.00 | 0.00 | 86 | 1021.2 |
| 20260830024556 | 58 | 210 | 0.0 | 0.0 | 0.00 | 0.00 | 0.00 | 85 | 1021.2 |
| 20260830024059 | 58 | 210 | 0.0 | 0.0 | 0.00 | 0.00 | 0.00 | 85 | 1021.2 |
| 20260830023555 | 58 | 211 | 0.0 | 0.0 | 0.00 | 0.00 | 0.00 | 85 | 1021.3 |
| 20260830023112 | 58 | 210 | 0.0 | 0.0 | 0.00 | 0.00 | 0.00 | 85 | 1021.3 |
| 20260830022554 | 58 | 210 | 0.0 | 1.0 | 0.00 | 0.00 | 0.00 | 84 | 1021.3 |